Regional Weather Roundup
Issued by NWS

Home | Current Version | Previous Version | Text Only | Print | Product List | Glossary On
Versions: 1 2 3 4 5 6 7 8 9 10 11 12 13 14 15 16 17 18 19 20 21 22 23 24 25 26 27 28 29 30 31 32 33 34 35 36 37 38 39 40 41 42 43 44 45 46 47 48 49 50
000
ASUS43 KLSX 121610
RWRMO

WEATHER SUMMARY FOR MISSOURI
NATIONAL WEATHER SERVICE SPRINGFIELD MO
1000 AM CST FRI FEB 12 2016

NOTE: "FAIR" INDICATES FEW OR NO CLOUDS BELOW 12,000 FEET WITH NO
       SIGNIFICANT WEATHER AND/OR OBSTRUCTIONS TO VISIBILITY.
       CURRENT SKY AND/OR WEATHER CONDITIONS ARE NOT AVAILABLE FOR
       CHILLICOTHE AND FARMINGTON.

MOZ001>031-035>038-043-044-053-054-121700-
...NORTHERN AND WESTERN MISSOURI...

CITY           SKY/WX    TMP DP  RH WIND       PRES   REMARKS
KANSAS CTY INT PTSUNNY   32  23  69 N15       30.39R WCI  22
KANSAS C DTWN  MOSUNNY   34  23  64 NW12      30.40R WCI  25
LEE`S SUMMIT   MOSUNNY   33  22  63 N15       30.38R WCI  23
ST JOSEPH      CLOUDY    29  20  69 N14       30.43R WCI  18
CHILLICOTHE      N/A     29  20  69 NW9G20    30.39R WCI  20
KIRKSVILLE     CLOUDY    23  16  74 NW16G24   30.34R WCI  10

$$
MOZ066>068-077>081-088>096-101>105-121700-
...SOUTHWEST MISSOURI...

CITY           SKY/WX    TMP DP  RH WIND       PRES   REMARKS
SPRINGFIELD    SUNNY     37  23  56 N18       30.29R WCI  27
JOPLIN         SUNNY     37  25  61 N10G21    30.35R WCI  30

$$
MOZ032>034-039>042-045>050-055>058-069>072-121700-
...CENTRAL MISSOURI...

CITY           SKY/WX    TMP DP  RH WIND       PRES   REMARKS
COLUMBIA       CLOUDY    30  22  72 NW16      30.32R WCI  19
JEFFERSON CITY CLOUDY    30  24  78 NW8       30.34R WCI  22
ROLLA          PTSUNNY   31  24  75 N12       30.27R WCI  22
SEDALIA        MOSUNNY   34  21  59 N15       30.37R WCI  24
WARRENSBURG    MOSUNNY   32  23  69 N15       30.37R WCI  22
OSAGE BEACH    SUNNY     34  21  60 NW7       30.33R WCI  28

$$
MOZ051-052-059>065-121700-
...EAST CENTRAL MISSOURI...

CITY           SKY/WX    TMP DP  RH WIND       PRES   REMARKS
ST LOUIS INTL  CLOUDY    29  22  75 NW8       30.29R WCI  21
SPIRIT OF STL  CLOUDY    29  24  82 NW7       30.30R WCI  22
ST CHARLES     CLOUDY    28  23  81 W10       30.29R WCI  19

$$
MOZ072>076-082>087-097>100-106>115-121700-
...SOUTH CENTRAL AND SOUTHEAST MISSOURI...

CITY           SKY/WX    TMP DP  RH WIND       PRES   REMARKS
CAPE GIRARDEAU CLOUDY    32  26  78 CALM      30.26R
FARMINGTON     CLOUDY    29  24  82 NW7       30.26R WCI  22
POPLAR BLUFF   CLOUDY    36  21  54 CALM      30.26R
WEST PLAINS    PTSUNNY   41  23  48 N8G21     30.25R

$$



USA.gov is the U.S. government's official web portal to all federal, state and local government web resources and services.